Location: Unspecified
(51.5147°N, 7.4673°E)
Time: 12:51:31
(UTC+01:00)

A-11 Canister half - Pass Details

Date: 16 February 2026
Orbit: 1513 x 1686 km, 47.2° (Epoch: 17 March)

Event Time Altitude Azimuth Distance (km) Brightness Sun altitude
Rises 04:49:06 0° 287° (WNW) 4,849 - -27.4°
Reaches altitude 10° 04:52:51 10° 276° (W) 3,832 - -26.8°
Maximum altitude 05:00:25 27° 225° (SW) 2,682 - -25.7°
Exits shadow 05:02:02 26° 209° (SSW) 2,732 9.9 -25.4°
Drops below altitude 10° 05:07:47 10° 172° (S) 3,715 11.0 -24.6°
Sets 05:11:24 0° 161° (SSE) 4,675 11.6 -24.0°
